Date String (YYYY-MM-DD hh:mm:ss) UTC,Instrument flags,Ambient pressure (hPa),Sample flow (lpm),Bypass flow (lpm),Sample temperature (°C),Ambient temperature (°C),ASC tube jacket temperature (°C),LED temperature (°C),Box temperature (°C),Sample RH (%),Span deviation,Mass concentration (μg/m³),Mass concentration (μg/m³),Mass concentration (μg/m³)
DateTimeUTC,F1_M11,P_M11,Q1_M11,Q2_M11,T1_M11,T2_M11,T3_M11,T4_M11,T5_M11,U1_M11,ZSPAN_M11,X0_M11,X2_M11,X1_M11
2022-05-13 07:00:00,,0824.6,5.01,0.00,28.7,27.9,00.0,37.6,30.4,07.2,0000.0,0009.58,0002.77,0001.19
2022-05-13 07:01:00,,0824.5,5.00,0.00,28.6,27.9,00.0,37.6,30.4,07.2,0000.0,0009.72,0002.77,0001.19
2022-05-13 07:02:00,,0824.4,4.99,0.00,28.6,27.9,00.0,37.6,30.4,07.2,0000.0,0009.56,0002.73,0001.19
2022-05-13 07:03:00,,0824.4,5.02,0.00,28.6,27.9,00.0,37.6,30.4,07.1,0000.0,0008.41,0002.69,0001.19
2022-05-13 07:04:00,,0824.4,5.00,0.00,28.6,27.8,00.0,37.6,30.3,07.2,0000.0,0007.79,0002.69,0001.19
2022-05-13 07:05:00,,0824.5,5.00,0.00,28.6,27.8,00.0,37.6,30.3,07.1,0000.0,0007.67,0002.68,0001.19
2022-05-13 07:06:00,,0824.4,5.00,0.00,28.5,27.8,00.0,37.6,30.3,07.2,0000.0,0007.03,0002.74,0001.21
2022-05-13 07:07:00,,0824.4,4.99,0.00,28.5,27.7,00.0,37.5,30.2,07.2,0000.0,0006.75,0002.69,0001.21
2022-05-13 07:08:00,,0824.4,5.00,0.00,28.5,27.7,00.0,37.5,30.2,07.4,0000.0,0006.38,0002.65,0001.22
2022-05-13 07:09:00,,0824.4,4.99,0.00,28.5,27.7,00.0,37.5,30.2,07.3,0000.0,0006.01,0002.54,0001.22
2022-05-13 07:10:00,,0824.3,5.01,0.00,28.5,27.7,00.0,37.5,30.2,07.2,0000.0,0005.94,0002.47,0001.21
2022-05-13 07:11:00,,0824.4,4.98,0.00,28.5,27.7,00.0,37.5,30.2,07.1,0000.0,0006.28,0002.40,0001.20
2022-05-13 07:12:00,,0824.4,5.01,0.00,28.5,27.7,00.0,37.5,30.2,07.3,0000.0,0005.85,0002.39,0001.21
2022-05-13 07:13:00,,0824.4,5.00,0.00,28.5,27.7,00.0,37.5,30.2,07.1,0000.0,0006.05,0002.45,0001.21
2022-05-13 07:14:00,,0824.5,5.00,0.00,28.4,27.6,00.0,37.5,30.2,07.1,0000.0,0006.04,0002.46,0001.20
2022-05-13 07:15:00,,0824.5,5.01,0.00,28.4,27.7,00.0,37.5,30.2,07.1,0000.0,0005.91,0002.41,0001.20
2022-05-13 07:16:00,,0824.5,5.00,0.00,28.5,27.7,00.0,37.5,30.3,07.2,0000.0,0005.84,0002.40,0001.20
2022-05-13 07:17:00,,0824.5,5.00,0.00,28.5,27.7,00.0,37.5,30.3,07.2,0000.0,0005.66,0002.37,0001.19
2022-05-13 07:18:00,,0824.5,4.99,0.00,28.5,27.7,00.0,37.5,30.2,07.0,0000.0,0005.82,0002.38,0001.19
2022-05-13 07:19:00,,0824.4,5.00,0.00,28.5,27.7,00.0,37.5,30.2,07.1,0000.0,0006.26,0002.43,0001.18
2022-05-13 07:20:00,,0824.5,5.01,0.00,28.4,27.7,00.0,37.5,30.2,07.1,0000.0,0006.63,0002.44,0001.18
2022-05-13 07:21:00,,0824.5,5.00,0.00,28.4,27.7,00.0,37.4,30.2,07.1,0000.0,0006.58,0002.40,0001.17
2022-05-13 07:22:00,,0824.4,4.99,0.00,28.5,27.7,00.0,37.4,30.3,07.0,0000.0,0005.61,0002.36,0001.16
2022-05-13 07:23:00,,0824.5,5.01,0.00,28.5,27.7,00.0,37.5,30.3,07.1,0000.0,0005.65,0002.43,0001.16
2022-05-13 07:24:00,,0824.4,4.99,0.00,28.5,27.8,00.0,37.5,30.3,07.1,0000.0,0005.67,0002.41,0001.16
2022-05-13 07:25:00,,0824.4,5.02,0.00,28.5,27.8,00.0,37.5,30.3,07.1,0000.0,0006.09,0002.41,0001.16
2022-05-13 07:26:00,,0824.4,5.00,0.00,28.5,27.8,00.0,37.5,30.3,07.1,0000.0,0006.02,0002.39,0001.15
2022-05-13 07:27:00,,0824.4,5.01,0.00,28.5,27.8,00.0,37.5,30.3,07.1,0000.0,0006.56,0002.42,0001.15
2022-05-13 07:28:00,,0824.4,4.99,0.00,28.5,27.8,00.0,37.5,30.3,07.1,0000.0,0007.37,0002.43,0001.15
2022-05-13 07:29:00,,0824.5,5.01,0.00,28.5,27.8,00.0,37.5,30.3,07.3,0000.0,0007.40,0002.39,0001.15
2022-05-13 07:30:00,,0824.5,5.00,0.00,28.5,27.8,00.0,37.5,30.3,07.3,0000.0,0007.11,0002.37,0001.16
2022-05-13 07:31:00,,0824.5,5.00,0.00,28.5,27.8,00.0,37.5,30.3,07.3,0000.0,0007.81,0002.50,0001.17
2022-05-13 07:32:00,,0824.5,5.01,0.00,28.5,27.8,00.0,37.5,30.3,07.3,0000.0,0008.37,0002.60,0001.18
2022-05-13 07:33:00,,0824.6,4.99,0.00,28.5,27.8,00.0,37.5,30.3,07.1,0000.0,0008.44,0002.59,0001.17
2022-05-13 07:34:00,,0824.7,4.99,0.00,28.5,27.7,00.0,37.5,30.3,07.2,0000.0,0008.77,0002.58,0001.17
2022-05-13 07:35:00,,0824.6,5.02,0.00,28.5,27.7,00.0,37.5,30.3,07.2,0000.0,0008.75,0002.55,0001.17
2022-05-13 07:36:00,,0824.5,4.99,0.00,28.5,27.7,00.0,37.5,30.3,07.3,0000.0,0009.35,0002.60,0001.18
2022-05-13 07:37:00,,0824.4,5.00,0.00,28.5,27.7,00.0,37.5,30.3,07.3,0000.0,0009.38,0002.62,0001.17
2022-05-13 07:38:00,,0824.3,5.01,0.00,28.5,27.7,00.0,37.5,30.2,07.4,0000.0,0009.33,0002.61,0001.17
2022-05-13 07:39:00,,0824.4,5.00,0.00,28.5,27.7,00.0,37.4,30.2,07.3,0000.0,0008.92,0002.59,0001.17
2022-05-13 07:40:00,,0824.4,5.00,0.00,28.4,27.7,00.0,37.4,30.2,07.4,0000.0,0008.76,0002.63,0001.17
2022-05-13 07:41:00,,0824.5,4.99,0.00,28.4,27.7,00.0,37.4,30.2,07.4,0000.0,0009.22,0002.70,0001.18
2022-05-13 07:42:00,,0824.6,5.00,0.00,28.4,27.7,00.0,37.4,30.2,07.4,0000.0,0009.14,0002.63,0001.17
2022-05-13 07:43:00,,0824.7,5.00,0.00,28.4,27.7,00.0,37.4,30.1,07.5,0000.0,0008.43,0002.54,0001.16
2022-05-13 07:44:00,,0824.6,4.99,0.00,28.4,27.7,00.0,37.4,30.1,07.5,0000.0,0008.88,0002.62,0001.17
2022-05-13 07:45:00,,0824.6,5.01,0.00,28.4,27.6,00.0,37.4,30.1,07.5,0000.0,0008.91,0002.69,0001.17
2022-05-13 07:46:00,,0824.4,5.00,0.00,28.4,27.6,00.0,37.4,30.1,07.6,0000.0,0009.05,0002.65,0001.16
2022-05-13 07:47:00,,0824.4,5.01,0.00,28.4,27.6,00.0,37.4,30.1,07.5,0000.0,0008.55,0002.70,0001.16
2022-05-13 07:48:00,,0824.4,4.98,0.00,28.3,27.6,00.0,37.4,30.0,07.5,0000.0,0008.50,0002.70,0001.17
2022-05-13 07:49:00,,0824.4,5.01,0.00,28.3,27.5,00.0,37.4,30.0,07.5,0000.0,0008.46,0002.70,0001.18
2022-05-13 07:50:00,,0824.3,4.99,0.00,28.3,27.5,00.0,37.4,30.0,07.4,0000.0,0008.37,0002.69,0001.18
2022-05-13 07:51:00,,0824.3,5.01,0.00,28.3,27.4,00.0,37.4,30.0,07.4,0000.0,0008.24,0002.69,0001.18
2022-05-13 07:52:00,,0824.3,5.00,0.00,28.2,27.4,00.0,37.3,29.9,07.4,0000.0,0007.78,0002.60,0001.18
2022-05-13 07:53:00,,0824.4,5.00,0.00,28.2,27.3,00.0,37.3,29.9,07.5,0000.0,0007.68,0002.57,0001.17
2022-05-13 07:54:00,,0824.4,5.00,0.00,28.2,27.4,00.0,37.3,30.0,07.2,0000.0,0007.55,0002.54,0001.16
2022-05-13 07:55:00,,0824.6,5.00,0.00,28.2,27.4,00.0,37.3,29.9,07.0,0000.0,0007.21,0002.50,0001.16
2022-05-13 07:56:00,,0824.7,5.01,0.00,28.2,27.4,00.0,37.3,29.9,07.3,0000.0,0006.83,0002.56,0001.16
2022-05-13 07:57:00,,0824.8,4.99,0.00,28.2,27.3,00.0,37.3,29.9,07.4,0000.0,0006.50,0002.57,0001.16
2022-05-13 07:58:00,,0824.6,5.00,0.00,28.2,27.4,00.0,37.3,29.9,07.4,0000.0,0006.10,0002.49,0001.15
2022-05-13 07:59:00,,0824.1,5.00,0.00,28.2,27.3,00.0,37.2,29.9,07.5,0000.0,0006.71,0002.54,0001.15
